TimeEST,TemperatureF,Dew PointF,Humidity,Sea Level PressureIn,VisibilityMPH,Wind Direction,Wind SpeedMPH,Gust SpeedMPH,PrecipitationIn,Events,Conditions,WindDirDegrees,DateUTC
12:53 AM,1.9,-2.9,80,30.38,10.0,Calm,Calm,-,N/A,,Clear,0,2013-01-27 05:53:00
1:53 AM,1.0,-5.1,75,30.39,10.0,Calm,Calm,-,N/A,,Clear,0,2013-01-27 06:53:00
2:53 AM,-0.0,-4.0,83,30.41,10.0,Calm,Calm,-,N/A,,Clear,0,2013-01-27 07:53:00
3:53 AM,-2.0,-6.0,83,30.42,10.0,Calm,Calm,-,N/A,,Clear,0,2013-01-27 08:53:00
4:53 AM,-2.0,-6.0,83,30.43,10.0,SSW,4.6,-,N/A,,Clear,210,2013-01-27 09:53:00
5:53 AM,-2.9,-6.0,87,30.46,10.0,Calm,Calm,-,N/A,,Clear,0,2013-01-27 10:53:00
6:53 AM,-2.9,-8.0,79,30.48,10.0,Calm,Calm,-,N/A,,Clear,0,2013-01-27 11:53:00
7:53 AM,-2.9,-8.0,79,30.50,10.0,Calm,Calm,-,N/A,,Clear,0,2013-01-27 12:53:00
8:53 AM,7.0,1.9,80,30.52,10.0,Calm,Calm,-,N/A,,Clear,0,2013-01-27 13:53:00
9:53 AM,14.0,-0.0,54,30.53,10.0,Variable,5.8,-,N/A,,Clear,0,2013-01-27 14:53:00
10:53 AM,15.1,-0.0,51,30.55,10.0,ENE,3.5,-,N/A,,Clear,60,2013-01-27 15:53:00
11:53 AM,17.1,1.0,50,30.53,10.0,Calm,Calm,-,N/A,,Clear,0,2013-01-27 16:53:00
12:53 PM,19.9,1.9,46,30.51,10.0,SSE,3.5,-,N/A,,Clear,160,2013-01-27 17:53:00
1:53 PM,21.9,1.9,42,30.49,10.0,South,6.9,-,N/A,,Clear,180,2013-01-27 18:53:00
2:53 PM,23.0,1.9,40,30.49,10.0,SSE,5.8,-,N/A,,Clear,160,2013-01-27 19:53:00
3:53 PM,23.0,1.9,40,30.51,10.0,Calm,Calm,-,N/A,,Clear,0,2013-01-27 20:53:00
4:53 PM,21.9,1.0,40,30.51,10.0,South,3.5,-,N/A,,Clear,170,2013-01-27 21:53:00
5:53 PM,18.0,1.9,50,30.53,10.0,NE,6.9,-,N/A,,Clear,50,2013-01-27 22:53:00
6:53 PM,17.1,1.9,52,30.55,10.0,Calm,Calm,-,N/A,,Clear,0,2013-01-27 23:53:00
7:53 PM,12.9,1.9,62,30.53,10.0,Calm,Calm,-,N/A,,Clear,0,2013-01-28 00:53:00
8:53 PM,9.0,1.0,70,30.52,10.0,Calm,Calm,-,N/A,,Clear,0,2013-01-28 01:53:00
9:53 PM,7.0,1.0,77,30.53,10.0,Calm,Calm,-,N/A,,Clear,0,2013-01-28 02:53:00
10:53 PM,8.1,1.9,76,30.51,10.0,Calm,Calm,-,N/A,,Mostly Cloudy,0,2013-01-28 03:53:00
11:53 PM,9.0,3.9,80,30.51,10.0,Calm,Calm,-,N/A,,Mostly Cloudy,0,2013-01-28 04:53:00